LRI582 KPOU-K5B2

Flight info

Callsign LRI582
Flight time N/A
Altitude 11000
Route DUCHS8 IGN V157 ALB
Aircraft BE9L/L-SDFG/C

Departure

Time 2026-05-07 14:41
Airport Dutchess County Airport (KPOU)

Arrival

Time N/A
Airport Saratoga County Airport (K5B2)
Time Latitude Longitude Altitude Speed Heading
2026-05-07 14:16 41.62442 -73.88353 149 ft 0 kts 140°
2026-05-07 14:37 41.62434 -73.88351 149 ft 1 kts 205°
2026-05-07 14:37 41.62450 -73.88386 148 ft 6 kts 266°
2026-05-07 14:38 41.62456 -73.88488 147 ft 13 kts 294°
2026-05-07 14:38 41.62438 -73.88596 145 ft 20 kts 233°
2026-05-07 14:38 41.62344 -73.88754 140 ft 20 kts 240°
2026-05-07 14:38 41.62276 -73.88939 129 ft 23 kts 245°
2026-05-07 14:39 41.62194 -73.89101 118 ft 14 kts 239°
2026-05-07 14:39 41.62219 -73.89162 115 ft 7 kts 53°
2026-05-07 14:39 41.62229 -73.89142 116 ft 0 kts 52°
2026-05-07 14:41 41.62259 -73.89092 120 ft 38 kts 49°
2026-05-07 14:41 41.62591 -73.88547 146 ft 102 kts 48°
2026-05-07 14:41 41.63081 -73.87752 423 ft 113 kts 43°
2026-05-07 14:41 41.63685 -73.87049 919 ft 119 kts 42°
2026-05-07 14:42 41.64121 -73.86128 1483 ft 119 kts 47°
2026-05-07 14:42 41.64614 -73.85274 2043 ft 118 kts 44°
2026-05-07 14:42 41.65131 -73.84426 2605 ft 119 kts 43°
2026-05-07 14:42 41.65655 -73.83605 3148 ft 120 kts 42°
2026-05-07 14:43 41.66201 -73.82776 3676 ft 121 kts 40°
2026-05-07 14:43 41.66907 -73.82308 4182 ft 113 kts 357°
2026-05-07 14:43 41.67676 -73.82273 4684 ft 114 kts 356°
2026-05-07 14:43 41.68468 -73.82227 5195 ft 115 kts 355°
2026-05-07 14:44 41.69259 -73.82197 5694 ft 115 kts 353°
2026-05-07 14:44 41.70060 -73.82172 6202 ft 115 kts 351°
2026-05-07 14:44 41.70863 -73.82155 6663 ft 118 kts 350°
2026-05-07 14:44 41.71688 -73.82136 7109 ft 122 kts 349°
2026-05-07 14:45 41.72543 -73.82123 7552 ft 125 kts 348°
2026-05-07 14:45 41.73413 -73.82104 7981 ft 128 kts 347°
2026-05-07 14:45 41.74300 -73.82087 8411 ft 130 kts 346°
2026-05-07 14:45 41.75206 -73.82075 8831 ft 132 kts 345°
2026-05-07 14:46 41.76132 -73.82056 9243 ft 134 kts 344°
2026-05-07 14:46 41.77062 -73.82040 9649 ft 136 kts 342°
2026-05-07 14:46 41.78009 -73.82025 10047 ft 138 kts 341°
2026-05-07 14:46 41.78976 -73.82011 10424 ft 141 kts 340°
2026-05-07 14:47 41.79955 -73.82000 10818 ft 144 kts 340°
2026-05-07 14:47 41.81023 -73.82007 11016 ft 168 kts 342°
2026-05-07 14:47 41.82309 -73.82006 11016 ft 199 kts 346°
2026-05-07 14:47 41.83776 -73.81968 11010 ft 222 kts 348°
2026-05-07 14:48 41.85375 -73.81928 10995 ft 236 kts 349°
2026-05-07 14:48 41.87066 -73.81885 10988 ft 245 kts 349°
2026-05-07 14:48 41.88779 -73.81850 10985 ft 250 kts 349°
2026-05-07 14:48 41.90520 -73.81816 10980 ft 252 kts 349°
2026-05-07 14:49 41.92278 -73.81786 10983 ft 254 kts 349°
2026-05-07 14:49 41.94055 -73.81750 10985 ft 255 kts 349°
2026-05-07 14:49 41.95831 -73.81722 10973 ft 256 kts 349°
2026-05-07 14:49 41.97636 -73.81690 10965 ft 256 kts 349°
2026-05-07 14:50 41.99402 -73.81658 10963 ft 256 kts 349°
2026-05-07 14:50 42.01185 -73.81626 10963 ft 256 kts 349°
2026-05-07 14:50 42.02968 -73.81594 10960 ft 256 kts 350°
2026-05-07 14:50 42.04752 -73.81562 10960 ft 256 kts 349°
2026-05-07 14:51 42.06544 -73.81529 10959 ft 256 kts 349°
2026-05-07 14:51 42.08315 -73.81502 10961 ft 256 kts 349°
2026-05-07 14:51 42.10113 -73.81470 10965 ft 256 kts 349°
2026-05-07 14:51 42.11908 -73.81438 10962 ft 256 kts 350°
2026-05-07 14:52 42.13685 -73.81406 10959 ft 256 kts 350°
2026-05-07 14:52 42.15477 -73.81374 10956 ft 256 kts 349°
2026-05-07 14:52 42.17249 -73.81338 10959 ft 256 kts 349°
2026-05-07 14:52 42.19041 -73.81312 10955 ft 256 kts 350°
2026-05-07 14:53 42.20811 -73.81278 10959 ft 256 kts 350°
2026-05-07 14:53 42.22603 -73.81245 10966 ft 256 kts 349°
2026-05-07 14:53 42.24380 -73.81215 10960 ft 255 kts 350°
2026-05-07 14:53 42.26146 -73.81184 10959 ft 255 kts 350°
2026-05-07 14:54 42.27917 -73.81152 10959 ft 255 kts 350°
2026-05-07 14:54 42.29708 -73.81122 10957 ft 255 kts 349°
2026-05-07 14:54 42.31461 -73.81090 10960 ft 254 kts 349°
2026-05-07 14:54 42.33230 -73.81060 10956 ft 254 kts 350°
2026-05-07 14:55 42.35015 -73.81028 10956 ft 254 kts 350°
2026-05-07 14:55 42.36773 -73.80997 10959 ft 254 kts 350°
2026-05-07 14:55 42.38535 -73.80967 10959 ft 254 kts 350°
2026-05-07 14:55 42.40306 -73.80934 10954 ft 254 kts 350°
2026-05-07 14:56 42.42073 -73.80906 10944 ft 255 kts 350°
2026-05-07 14:56 42.43845 -73.80872 10948 ft 255 kts 350°
2026-05-07 14:56 42.45615 -73.80840 10943 ft 254 kts 350°
2026-05-07 14:56 42.47392 -73.80810 10945 ft 254 kts 350°
2026-05-07 14:57 42.49157 -73.80775 10944 ft 254 kts 351°
2026-05-07 14:57 42.50147 -73.80759 10940 ft 248 kts 351°